Location: Unspecified
(0.0000°N, 0.0000°E)
Time: 10:03:26
(UTC+00:00)

NNS O-29 - Pass Details

Date: 13 August 2024
Orbit: 1013 x 1173 km, 90.4° (Epoch: 07 September)

Event Time Altitude Azimuth Distance (km) Brightness Sun altitude
Rises 05:32:06 0° 151° (SSE) 4,005 10.4 -7.9°
Reaches altitude 10° 05:35:12 10° 139° (SE) 3,060 10.0 -7.2°
Maximum altitude 05:40:54 26° 85° (E) 2,109 9.9 -5.8°
Drops below altitude 10° 05:46:36 10° 31° (NNE) 3,080 10.4 -4.4°
Sets 05:49:42 0° 20° (NNE) 4,037 10.7 -3.7°
